Location: Mladá Boleslav
(50.4134°N, 14.9084°E)
Time: 00:24:56
(UTC+02:00)

ITAMSAT 1 - Visible Passes

Search period start: 28 May 2024 00:00
Search period end: 07 June 2024 00:00
Orbit: 781 x 796 km, 98.8° (Epoch: 27 May)

Date Brightness Start Highest point End Pass type
(mag) Time Alt. Az. Time Alt. Az. Time Alt. Az.
28 May 10.1 22:59:13 10° WSW 23:01:56 14° W 23:04:38 10° NW visible
29 May 9.6 22:27:27 10° SSW 22:31:39 25° W 22:35:52 10° NW visible
30 May 8.8 21:56:35 10° S 22:01:30 42° W 22:06:25 10° NNW visible
31 May 10.3 23:10:04 10° WSW 23:11:49 12° W 23:13:36 10° WNW visible
01 Jun 9.8 22:37:39 10° SW 22:41:29 21° W 22:45:22 10° NW visible
02 Jun 9.1 22:06:34 10° SSW 22:11:18 35° W 22:16:04 10° NNW visible
04 Jun 10.0 22:47:58 10° SW 22:51:22 17° W 22:54:46 10° NW visible
05 Jun 9.3 22:16:36 10° SSW 22:21:08 30° W 22:25:39 10° NNW visible
06 Jun 8.4 21:45:59 10° S 21:51:02 52° W 21:56:05 10° NNW visible
